This is the latest recevied weather packets stored in our database for station/object KB1WCR. If no packets are shown the sender has not sent any weather packets the latest 10 day(s).
| Time | Temp. | Humidity | Pressure | Rain* | Wind** | Luminosity | Snow |
|---|---|---|---|---|---|---|---|
| 1777857231 | 5° C | 71% | 1007.6 hPa | 0 mm | - | 0 W/m² | - |
| 1777856927 | 5.56° C | 66% | 1007.4 hPa | 0 mm | - | 0 W/m² | - |
| 1777856623 | 6.11° C | 64% | 1007.4 hPa | 0 mm | - | 0 W/m² | - |
| 1777856320 | 6.67° C | 63% | 1007.2 hPa | 0 mm | - | 0 W/m² | - |
| 1777856016 | 6.67° C | 63% | 1007.3 hPa | 0 mm | - | 0 W/m² | - |
| 1777855714 | 6.67° C | 61% | 1007.3 hPa | 0 mm | - | 0 W/m² | - |
| 1777855411 | 7.22° C | 61% | 1007.3 hPa | 0 mm | - | 0 W/m² | - |
| 1777855107 | 7.22° C | 60% | 1007.1 hPa | 0 mm | - | 0 W/m² | - |
| 1777854805 | 7.22° C | 60% | 1007.1 hPa | 0 mm | - | 0 W/m² | - |
| 1777854501 | 7.78° C | 59% | 1006.9 hPa | 0 mm | - | 0 W/m² | - |
| 1777854198 | 7.78° C | 58% | 1006.8 hPa | 0 mm | - | 0 W/m² | - |
| 1777853896 | 7.78° C | 57% | 1006.6 hPa | 0 mm | - | 0 W/m² | - |
| 1777853593 | 7.78° C | 57% | 1006.7 hPa | 0 mm | - | 0 W/m² | - |
| 1777853290 | 7.78° C | 57% | 1006.5 hPa | 0 mm | - | 0 W/m² | - |
| 1777852987 | 7.78° C | 56% | 1006.4 hPa | 0 mm | - | 0 W/m² | - |
| 1777852684 | 8.33° C | 55% | 1006.4 hPa | 0 mm | - | 1 W/m² | - |
| 1777852382 | 8.33° C | 56% | 1006.5 hPa | 0 mm | - | 2 W/m² | - |
| 1777852079 | 8.33° C | 55% | 1006.3 hPa | 0 mm | - | 3 W/m² | - |
| 1777851777 | 8.89° C | 55% | 1006.2 hPa | 0 mm | - | 5 W/m² | - |
| 1777851474 | 8.89° C | 53% | 1006 hPa | 0 mm | - | 7 W/m² | - |
| 1777851169 | 8.89° C | 56% | 1005.9 hPa | 0 mm | - | 10 W/m² | - |
| 1777850867 | 8.89° C | 55% | 1005.8 hPa | 0 mm | - | 13 W/m² | - |
| 1777850564 | 8.89° C | 55% | 1005.7 hPa | 0 mm | - | 16 W/m² | - |
| 1777850262 | 9.44° C | 54% | 1005.6 hPa | 0 mm | - | 20 W/m² | - |
| 1777849959 | 9.44° C | 53% | 1005.6 hPa | 0 mm | - | 22 W/m² | - |
* Rain latest hour (hover to see other rain measurements)
** Current wind speed in m/s (hover to see current wind gust speed)